TimeAKDT,TemperatureF,Dew PointF,Humidity,Sea Level PressureIn,VisibilityMPH,Wind Direction,Wind SpeedMPH,Gust SpeedMPH,PrecipitationIn,Events,Conditions,WindDirDegrees,DateUTC
12:53 AM,55.9,55.0,97,29.76,10.0,Calm,Calm,-,N/A,,Overcast,0,2013-08-08 08:53:00
1:53 AM,57.0,55.0,93,29.77,10.0,Calm,Calm,-,N/A,,Overcast,0,2013-08-08 09:53:00
2:53 AM,55.0,54.0,96,29.78,10.0,Calm,Calm,-,N/A,,Mostly Cloudy,0,2013-08-08 10:53:00
3:53 AM,55.0,54.0,96,29.77,10.0,Calm,Calm,-,N/A,,Overcast,0,2013-08-08 11:53:00
4:53 AM,54.0,53.1,97,29.76,10.0,NNE,3.5,-,N/A,,Overcast,30,2013-08-08 12:53:00
5:53 AM,54.0,53.1,97,29.75,10.0,Calm,Calm,-,N/A,,Overcast,0,2013-08-08 13:53:00
6:53 AM,55.0,53.1,93,29.76,10.0,Calm,Calm,-,N/A,,Overcast,0,2013-08-08 14:53:00
7:53 AM,55.0,53.1,93,29.75,10.0,Calm,Calm,-,N/A,,Overcast,0,2013-08-08 15:53:00
8:53 AM,55.9,53.1,90,29.75,10.0,Calm,Calm,-,N/A,,Unknown,0,2013-08-08 16:53:00
8:55 AM,55.4,53.6,94,29.75,10.0,Calm,Calm,-,N/A,,Mostly Cloudy,0,2013-08-08 16:55:00
9:53 AM,57.0,54.0,89,29.77,10.0,Calm,Calm,-,N/A,,Mostly Cloudy,0,2013-08-08 17:53:00
10:53 AM,61.0,53.1,75,29.75,10.0,NNE,13.8,-,N/A,,Mostly Cloudy,30,2013-08-08 18:53:00
11:53 AM,63.0,53.1,70,29.76,10.0,Calm,Calm,-,N/A,,Overcast,0,2013-08-08 19:53:00
12:53 PM,64.9,52.0,63,29.77,10.0,Variable,5.8,-,N/A,,Mostly Cloudy,0,2013-08-08 20:53:00
1:53 PM,64.9,50.0,58,29.78,10.0,Calm,Calm,-,N/A,,Overcast,0,2013-08-08 21:53:00
2:53 PM,66.0,48.9,54,29.78,10.0,Calm,Calm,-,N/A,,Overcast,0,2013-08-08 22:53:00
3:53 PM,66.9,48.9,52,29.77,10.0,Variable,3.5,-,N/A,,Partly Cloudy,0,2013-08-08 23:53:00
4:53 PM,66.0,50.0,56,29.76,10.0,SW,3.5,-,N/A,,Mostly Cloudy,220,2013-08-09 00:53:00
5:53 PM,64.9,51.1,61,29.76,10.0,SW,4.6,-,N/A,,Overcast,220,2013-08-09 01:53:00
6:53 PM,59.0,55.9,90,29.78,4.0,SSE,4.6,-,0.03,,Overcast,150,2013-08-09 02:53:00
7:53 PM,60.1,57.0,90,29.78,10.0,SSE,3.5,-,0.01,,Overcast,150,2013-08-09 03:53:00
8:53 PM,59.0,55.9,90,29.80,10.0,SSE,6.9,-,N/A,,Overcast,160,2013-08-09 04:53:00
9:53 PM,57.0,52.0,83,29.82,10.0,SSE,5.8,-,N/A,,Overcast,160,2013-08-09 05:53:00
10:53 PM,55.9,51.1,84,29.83,10.0,South,5.8,-,N/A,,Overcast,170,2013-08-09 06:53:00
11:53 PM,55.0,48.9,80,29.85,10.0,SSW,4.6,-,N/A,,Overcast,200,2013-08-09 07:53:00